Regional Weather Roundup
Issued by NWS

Home | Current Version | Previous Version | Text Only | Print | Product List | Glossary On
Versions: 1 2 3 4 5 6 7 8 9 10 11 12 13 14 15 16 17 18 19 20 21 22 23 24 25 26 27 28 29 30 31 32 33 34 35 36 37 38 39 40 41 42 43 44 45 46 47 48 49 50
000
ASUS44 KMEG 301010
RWRTN
TENNESSEE HOURLY STATE WEATHER ROUNDUP
NATIONAL WEATHER SERVICE MEMPHIS TN
500 AM CDT FRI SEP 30 2016

TNZ002-004-019-021-049-052-054-088>092-301100-
WEST TENNESSEE

CITY           SKY/WX    TMP DP  RH WIND       PRES   REMARKS
MEMPHIS INTL   CLOUDY    62  56  80 NW3       30.09F
NWS MEMPHIS      N/A     59 N/A N/A MISG        N/A
JACKSON          N/A    N/A N/A N/A MISG      30.09S
DYERSBURG      CLOUDY   N/A N/A N/A MISG        N/A
UNION CITY     CLOUDY    57  55  94 CALM      30.08S
PARIS          CLOUDY    54  54 100 CALM      30.08S
HUNTINGDON     CLOUDY    57  55  94 VRB5      30.07S FOG
LEXINGTON      CLOUDY    54  54 100 CALM      30.07S VSB 1/2
$$

TNZ008-025-027-028-033-062-065-066-301100-
NORTH MIDDLE TENNESSEE

CITY           SKY/WX    TMP DP  RH WIND       PRES   REMARKS
NASHVILLE      CLOUDY    53  51  93 CALM      30.06S
PORTLAND       FOG       52  52 100 CALM      30.05S VSB 0
CLARKSVILLE    CLOUDY    57  54  89 W6        30.05S
SMYRNA         FOG       51  51 100 SE3       30.07S VSB 1/2
COOKEVILLE     CLOUDY    52  52 100 CALM      30.05S
GALLATIN       FOG       50  50 100 CALM      30.08S VSB 0
CROSSVILLE     FOG       48  47  96 W6        30.07R VSB 1
$$

TNZ061-075-076-078-094-096-097-301100-
SOUTH MIDDLE TENNESSEE

CITY           SKY/WX    TMP DP  RH WIND       PRES   REMARKS
FAYETTEVILLE   FOG       48  48 100 CALM      30.06S VSB 3/4
TULLAHOMA      CLOUDY    48  48 100 W5        30.08R VSB 0
WINCHESTER     CLOUDY    52  52 100 CALM      30.07S
MCMINNVILLE    CLOUDY    52  52 100 CALM      30.07R VSB 1/4
COLUMBIA       CLOUDY   N/A N/A N/A CALM      30.05S VSB 0
SHELBYVILLE    CLOUDY    50  50 100 CALM      30.08R VSB 0
$$

TNZ017-018-042-046-047-301100-
NORTHEAST TENNESSEE

CITY           SKY/WX    TMP DP  RH WIND       PRES   REMARKS
TRI CITIES     MOCLDY    56  54  93 W6        30.01R
ELIZABETHTON     N/A     54  54 100 CALM      30.00S
$$

TNZ012-013-036-069-073-074-301100-
CENTRAL EAST TENNESSEE

CITY           SKY/WX    TMP DP  RH WIND       PRES   REMARKS
KNOXVILLE      PTCLDY    50  46  86 CALM      30.02S
OAK RIDGE      CLOUDY    48  45  89 CALM      30.05R
DOWNTOWN KNOXV CLOUDY    52  50  93 W3        30.03R
GATLINBURG     CLOUDY    54  48  82 W6        30.02R
MORRISTOWN     PTCLDY    52  52 100 CALM      30.01R
JACKSBORO      FOG       45  45 100 CALM      30.06S VSB 1/2
$$

TNZ083-085-099-301100-
SOUTHEAST TENNESSEE

CITY           SKY/WX    TMP DP  RH WIND       PRES   REMARKS
CHATTANOOGA    PTCLDY    53  49  86 NW3       30.05R
$$

SKY/WX REPORTED AS FAIR MEANS FEW OR NO CLOUDS BELOW
12 THOUSAND FEET.




USA.gov is the U.S. government's official web portal to all federal, state and local government web resources and services.